SCP
0 0 0 0 0 0 0 0 0 0 0 0 -0 0 0 0 0 -0 -0 0 -0 -0 -0 -0 -1 -1 -0 -0 -0 -1 -1 -1 -1 -0 -0 -0 -0 -0 0 0 0 0 0 0 0 0 0 0 0
0 0 0 0 0 0 0 0 0 0 0 0 0 0 0 0 0 -0 0 0 0 -0 -0 -0 -0 -0 -1 -0 -0 -1 -1 -1 -0 -0 -0 -0 -0 -0 -0 0 0 0 0 0 0 0 0 0 0
0 0 0 0 0 0 0 0 0 0 0 0 0 0 0 0 0 0 -0 0 0 0 0 0 -0 -0 -0 -0 -0 -0 -0 -0 -0 -0 -0 -0 -0 0 0 0 0 0 0 0 0 0 0 0 0
0 0 0 0 0 0 0 0 0 0 0 0 0 0 0 0 0 0 0 0 0 0 0 0 0 0 0 -0 -0 -0 -0 -0 -0 -0 -0 -0 0 0 0 0 0 0 0 0 0 0 0 0 0
0 0 0 0 0 0 0 0 0 0 0 0 0 0 0 0 1 1 0 0 0 0 0 1 0 0 0 0 0 0 0 -0 -0 -0 -0 0 0 0 0 0 0 0 0 0 0 0 0 0 0
0 0 0 0 0 0 0 0 0 0 0 0 0 0 0 0 0 1 1 1 0 1 1 1 0 1 0 0 0 0 0 0 0 0 0 0 0 0 0 0 0 0 0 0 0 0 0 0 0
0 0 0 0 0 0 0 0 0 0 0 0 0 0 0 0 0 1 1 1 1 1 1 1 1 0 0 1 0 0 0 0 0 0 0 0 0 0 0 0 0 0 0 0 0 0 0 0 0
0 0 0 0 0 0 0 0 0 0 0 0 0 0 0 0 0 1 1 1 1 1 1 1 0 0 1 1 1 1 1 1 0 0 0 0 0 0 0 0 0 0 0 0 0 0 0 0 0
0 0 0 0 0 0 0 0 0 0 0 0 0 0 0 0 1 1 1 1 1 1 1 1 0 0 0 1 1 1 0 0 1 1 0 0 0 0 0 0 0 0 0 0 0 0 0 0 0
0 0 0 0 0 0 0 0 0 0 0 0 0 0 0 0 0 1 1 1 1 1 1 1 0 1 1 1 1 1 1 1 1 1 1 0 0 0 0 0 0 0 0 0 0 0 0 0 0
0 0 0 0 0 0 0 0 0 0 0 0 0 0 0 0 0 0 0 1 1 1 1 1 0 1 1 1 1 1 1 1 1 0 0 0 0 0 0 0 0 0 0 0 0 0 0 0 0
0 0 0 0 0 0 0 0 0 0 0 0 0 0 0 0 0 0 0 0 0 1 1 1 1 1 1 1 1 1 1 0 0 0 0 0 0 0 0 0 0 0 0 0 0 0 0 0 0
0 0 0 0 0 0 0 0 0 0 0 0 0 0 0 0 0 0 0 0 0 0 0 1 1 1 1 1 1 1 1 1 0 0 0 0 0 0 0 0 0 0 0 0 0 0 0 0 0
0 0 0 0 0 0 0 0 0 0 0 0 0 0 0 0 0 0 0 0 0 0 0 1 1 1 1 1 1 1 1 0 0 0 0 0 0 0 0 0 0 0 0 0 0 0 0 0 0
0 0 0 0 0 0 0 0 0 0 0 0 0 0 0 0 0 0 0 0 0 0 0 0 1 1 1 1 1 1 1 1 0 0 0 0 0 0 0 0 0 0 0 0 0 0 0 0 0
0 0 0 0 0 0 0 0 0 0 0 0 0 0 0 0 0 0 0 0 0 0 0 0 0 0 0 1 1 1 1 1 1 0 0 0 0 0 0 0 0 0 0 0 0 0 0 0 0
0 0 0 0 0 0 0 -0 -0 0 0 0 0 0 0 0 0 0 0 0 0 0 0 0 0 0 0 0 1 1 0 0 0 0 0 0 0 0 0 0 0 0 0 0 0 0 0 0 0
0 0 0 0 0 0 0 0 0 0 0 0 0 0 0 0 0 0 0 0 0 0 1 1 1 0 0 0 0 0 0 0 0 0 0 0 0 0 0 0 0 0 0 0 0 0 0 0 0
0 0 0 0 0 0 0 0 0 0 0 0 0 0 -0 0 -0 -0 0 0 0 0 0 1 1 1 1 0 0 0 0 0 0 0 0 0 0 0 0 0 0 0 0 0 0 0 0 0 0
0 0 0 0 0 0 0 0 0 0 0 0 0 0 -0 -0 -0 -0 0 0 0 0 0 0 0 1 1 1 1 1 1 0 0 0 0 0 0 0 0 0 0 0 0 0 0 0 0 0 0
0 0 0 0 0 0 0 0 0 0 0 0 0 0 0 0 -0 0 0 0 0 0 0 0 0 0 1 1 1 0 1 0 0 1 1 0 0 0 0 0 0 0 0 0 0 0 0 0 0
0 0 0 0 0 0 0 0 0 0 0 0 0 0 0 0 0 0 0 0 0 0 0 0 0 0 0 0 0 0 0 0 0 0 0 0 0 0 0 0 0 0 0 0 0 0 0 0 0
0 0 0 0 0 0 0 0 0 0 0 0 0 0 0 0 0 0 0 0 0 0 0 0 0 0 0 0 0 0 0 0 0 0 0 0 0 0 0 0 0 0 0 0 0 0 0 0 0
0 0 0 0 0 0 0 0 0 0 0 0 0 0 0 0 0 0 0 0 0 0 0 0 0 0 0 0 0 0 0 0 0 0 0 0 0 0 0 0 0 0 0 0 0 0 0 0 0
0 0 0 0 0 0 0 0 0 0 0 0 0 0 0 0 0 0 0 0 0 0 0 0 0 0 0 0 0 0 0 0 0 0 0 0 0 1 1 0 0 0 0 1 0 0 0 0 0
0 0 0 0 0 0 0 0 0 0 0 0 0 0 0 0 0 0 0 0 0 0 0 0 0 0 0 0 0 0 0 0 0 0 0 0 0 1 1 1 1 0 1 1 0 0 0 0 0
0 0 0 0 0 0 0 0 0 0 0 0 0 0 0 0 0 0 0 0 0 0 0 0 0 0 0 0 0 0 0 0 0 0 0 0 1 1 1 1 1 1 1 1 0 0 0 0 0
0 0 0 0 0 0 0 0 0 0 0 0 0 0 0 0 0 0 0 0 0 0 0 0 0 0 0 0 0 0 0 0 -0 -0 0 0 0 1 1 1 1 1 1 1 1 0 0 0 0
0 0 0 0 0 0 0 0 0 0 0 0 0 0 0 0 0 0 0 0 0 0 0 0 0 0 0 0 0 0 0 0 0 0 0 0 1 1 1 1 1 1 1 1 1 1 0 0 0
0 0 0 0 0 0 0 0 0 0 0 0 0 0 0 0 0 0 0 0 -0 0 0 0 0 0 0 0 0 0 0 0 0 0 0 0 0 0 1 1 1 1 1 1 0 1 1 0 0
Wind_Speed_500mb
7 9 4 6 8 10 4 5 7 15 13 18 10 9 22 30 16 9 8 25 13 27 46 44 39 34 32 36 41 44 39 36 34 32 31 28 26 25 20 18 18 20 18 14 14 13 13 14 13
12 9 5 7 10 7 9 8 8 9 27 28 5 29 13 5 6 5 14 15 20 32 41 42 39 36 33 36 41 44 41 38 34 32 32 30 27 24 20 18 17 19 19 13 13 13 12 10 10
14 8 4 9 7 6 5 9 18 17 34 9 9 11 7 4 6 6 6 19 25 38 39 39 39 36 33 34 38 41 41 40 37 35 33 30 27 23 21 19 17 17 19 15 14 12 9 6 6
8 6 11 9 5 6 6 15 13 20 12 10 16 9 9 6 3 5 17 20 19 32 33 35 38 38 35 32 35 38 39 41 40 38 35 32 27 24 21 20 18 17 17 14 16 11 7 5 8
10 8 9 9 5 6 9 17 25 13 7 16 12 6 9 16 16 15 18 18 14 23 29 30 35 38 39 36 34 37 40 41 41 39 37 33 29 25 22 21 19 17 16 13 15 12 5 7 10
8 7 10 5 6 10 13 19 20 23 25 23 23 12 9 13 11 11 17 16 18 25 29 30 32 34 36 38 37 37 40 42 43 41 37 35 30 24 21 20 19 18 16 14 15 12 6 8 10
13 8 10 9 2 5 7 14 11 11 25 22 8 7 7 14 9 8 14 15 20 29 32 35 36 36 38 39 40 39 40 43 43 42 39 35 30 24 21 19 19 18 16 15 14 13 9 6 9
9 8 6 2 1 2 6 6 10 17 10 15 10 9 6 12 9 9 13 19 25 30 33 35 38 39 40 42 43 42 40 42 43 42 39 36 31 26 22 20 19 20 17 15 16 15 12 6 6
6 9 4 10 9 4 9 8 5 3 15 11 13 18 12 18 4 11 18 21 25 27 34 36 36 39 41 43 44 45 44 42 43 43 41 39 34 30 26 22 20 20 19 17 18 17 14 9 4
9 7 16 8 7 2 5 3 5 0 4 2 20 8 5 10 4 3 6 16 28 29 30 33 37 39 41 43 44 47 48 47 46 47 46 43 37 32 28 25 23 22 22 20 19 19 17 15 7
4 7 6 3 4 2 6 8 3 2 9 21 18 16 16 12 13 15 15 12 12 24 28 30 34 37 39 42 46 49 51 51 51 48 47 44 41 37 33 28 25 22 22 22 22 21 18 16 11
4 2 5 5 7 2 7 8 5 14 29 26 26 26 22 22 19 21 24 20 17 16 16 25 34 41 43 40 41 48 52 54 55 52 49 48 46 41 35 31 28 24 22 23 25 24 21 16 13
3 3 11 23 19 12 3 14 12 22 20 21 26 26 30 29 29 22 27 25 21 18 18 20 28 36 40 39 41 44 48 52 53 53 51 50 47 43 39 36 32 29 25 25 28 30 24 19 17
9 11 23 9 7 8 9 4 3 8 30 31 29 34 38 40 33 32 30 31 29 23 26 25 29 33 30 32 35 38 39 45 47 49 51 52 50 46 43 41 36 33 28 29 31 35 29 23 22
7 10 11 5 10 8 7 8 6 17 26 28 28 29 36 28 25 32 34 38 30 25 24 23 19 22 24 23 25 32 29 33 37 41 42 47 50 49 47 45 41 34 32 32 35 36 36 29 26
8 8 9 10 15 4 9 13 15 24 36 42 45 42 36 34 33 39 37 37 32 25 25 28 20 16 18 19 18 19 20 23 23 28 35 41 43 49 50 50 47 38 35 34 38 40 37 31 30
12 1 4 14 6 2 5 12 16 44 42 51 54 48 43 38 33 43 40 44 39 28 27 30 27 20 12 18 18 19 19 18 20 24 29 39 45 41 47 53 51 46 43 38 35 32 32 31 34
7 3 7 10 9 3 10 17 17 52 42 48 46 44 42 41 35 30 40 45 45 40 34 34 29 23 18 21 17 19 20 23 25 29 31 32 40 42 43 44 52 51 48 47 42 38 32 36 34
6 6 9 10 12 2 14 14 30 43 27 32 37 32 33 39 39 46 47 43 43 47 42 38 35 27 26 25 26 25 20 21 20 25 27 28 32 38 49 52 41 45 53 52 47 42 37 38 41
7 6 13 10 9 8 13 24 19 14 15 18 30 28 27 41 41 37 39 41 41 49 48 41 40 34 33 31 26 29 32 34 35 31 28 32 34 39 41 48 44 39 44 53 51 47 41 45 45
7 10 10 14 3 8 8 15 11 11 10 19 20 21 26 27 23 13 22 26 26 33 36 38 35 36 36 34 31 32 36 44 44 40 41 41 39 36 35 41 47 48 46 51 56 52 48 51 54
6 12 10 7 6 5 6 11 12 12 18 9 19 22 18 17 8 8 14 20 19 20 22 23 26 26 23 27 34 41 43 44 46 51 56 56 51 45 38 38 47 54 60 55 58 60 55 56 60
16 5 5 2 2 5 3 2 14 7 9 6 14 11 17 22 17 17 19 21 21 20 22 25 27 29 30 29 29 32 35 39 39 45 55 63 62 52 41 42 44 51 59 62 60 66 66 62 67
4 7 11 8 6 3 9 10 11 7 8 6 5 1 15 21 23 21 14 10 9 13 15 17 19 20 20 21 26 31 33 34 39 43 51 54 58 58 49 54 49 50 55 58 70 58 61 62 64
10 11 6 8 5 10 3 2 16 13 15 13 13 8 6 9 12 13 11 9 4 3 5 8 12 17 18 18 23 28 31 34 36 38 42 45 51 56 60 57 55 50 54 57 64 67 63 61 61
8 14 10 10 7 10 3 12 11 17 25 29 23 21 14 0 5 2 4 10 18 19 18 19 23 28 28 25 28 31 34 35 37 39 40 42 48 49 50 54 55 51 56 58 57 63 75 83 60
7 7 6 6 4 4 10 14 17 14 15 18 23 20 25 12 25 19 15 34 38 35 32 31 31 29 26 24 28 34 40 46 49 49 53 53 48 50 50 56 59 54 52 55 56 65 66 75 76
10 14 5 4 6 10 10 10 13 6 16 14 8 18 15 24 33 38 51 57 44 50 52 44 37 28 26 32 40 47 54 57 55 55 52 54 57 54 50 56 59 61 60 57 61 70 74 84 79
3 3 8 6 10 8 7 11 12 16 10 11 16 22 22 37 44 62 57 50 51 49 63 49 35 27 30 37 44 51 53 53 61 62 51 49 49 51 56 57 66 70 68 62 69 73 86 93 91
6 14 13 9 8 7 3 17 13 16 10 13 26 33 34 46 52 58 49 36 46 46 50 42 31 29 33 39 44 38 48 59 62 54 51 51 55 55 58 60 67 72 74 69 68 74 81 95 96
Wind_Direction_500mb
170 156 108 112 61 61 281 325 293 333 350 356 244 146 167 153 168 212 315 131 153 182 176 177 179 178 181 181 183 182 183 183 182 178 174 172 166 161 152 148 136 130 130 124 119 112 101 98 92
163 158 105 95 86 63 288 254 261 239 287 317 317 123 106 184 213 197 152 129 175 182 178 181 183 184 183 184 185 187 189 189 187 183 179 176 173 166 161 156 147 140 133 135 130 121 115 110 101
150 140 83 89 99 127 247 277 280 276 296 266 110 92 107 80 47 157 158 150 157 176 181 184 188 190 190 190 189 189 189 190 189 187 183 181 178 175 168 162 157 145 138 148 139 132 131 116 94
141 98 63 79 128 225 234 297 315 325 56 70 113 35 60 26 51 136 130 144 134 172 183 188 191 195 198 197 196 194 192 190 189 189 187 185 185 183 174 166 161 155 146 156 139 141 148 108 76
80 66 58 74 309 271 264 308 340 350 50 52 99 34 34 68 86 114 123 129 128 176 192 196 197 199 202 204 203 201 198 195 192 192 191 190 192 189 180 170 165 162 153 160 146 150 164 98 98
74 79 59 103 286 294 293 340 345 20 34 43 58 75 43 66 100 137 163 158 170 188 194 199 203 206 210 211 211 209 205 202 199 198 197 197 199 195 188 176 168 166 163 167 157 153 162 110 105
109 80 163 172 246 346 337 2 17 359 30 19 50 77 45 87 113 174 199 203 197 203 205 202 205 208 213 218 218 215 212 209 207 204 203 204 205 202 195 183 173 172 173 174 165 155 162 115 91
100 90 111 204 93 185 330 30 42 25 15 55 52 40 3 32 149 171 204 217 215 217 217 213 210 213 215 219 221 220 216 214 212 211 208 209 209 207 203 194 182 177 183 181 176 164 170 154 84
97 66 145 192 168 252 333 34 48 118 13 39 78 73 50 23 42 204 206 210 214 217 220 221 221 219 221 224 224 223 220 218 215 214 212 213 212 212 210 202 193 183 188 193 186 177 179 180 129
81 103 208 204 189 217 279 315 337 306 351 283 318 282 358 349 301 301 229 220 211 220 222 221 223 226 225 228 229 229 225 221 219 217 216 216 216 217 217 212 204 196 192 199 201 193 185 184 185
128 161 202 149 189 215 243 278 265 172 303 288 286 302 304 292 281 261 265 247 226 234 237 236 232 233 237 230 230 229 228 227 225 221 221 220 220 221 223 222 218 213 205 202 216 207 205 203 214
105 147 155 267 286 215 224 219 218 229 266 297 299 298 288 283 279 265 253 260 236 228 242 243 247 243 243 243 238 235 231 230 229 226 224 225 226 226 229 232 230 225 220 211 214 218 219 215 224
65 292 307 305 292 268 286 212 204 252 297 309 303 293 298 283 273 268 234 227 224 244 234 248 249 250 249 247 249 245 238 237 237 232 229 229 231 233 235 237 237 233 226 220 211 221 220 232 244
311 294 297 330 356 349 8 357 224 316 350 335 315 303 302 293 258 254 239 235 231 243 249 231 233 231 235 246 251 255 247 241 241 238 239 238 237 236 239 243 243 242 238 229 221 214 226 236 251
306 343 346 303 339 11 344 354 258 338 342 338 329 318 304 279 248 233 248 237 237 247 231 211 222 220 227 238 243 255 254 247 243 243 245 250 249 247 244 245 248 249 244 232 227 221 224 237 249
34 51 19 293 356 14 56 268 290 328 317 311 310 305 299 286 269 242 236 235 238 238 232 190 207 236 237 241 244 257 264 259 254 254 248 253 255 252 251 250 250 249 244 240 230 226 232 236 247
9 264 313 318 315 304 54 265 263 304 299 297 295 288 284 274 268 250 237 229 236 233 219 230 237 237 249 230 244 247 257 258 265 265 265 267 260 254 253 252 251 249 244 239 234 229 234 248 251
243 252 263 253 269 337 307 271 281 295 294 285 287 280 280 275 263 256 246 244 234 232 230 233 244 233 238 230 233 236 249 263 267 277 276 283 273 277 268 255 250 245 245 237 237 237 252 249 247
190 201 239 261 270 262 259 278 281 288 279 281 282 284 284 283 259 254 239 238 232 226 227 237 233 239 237 235 232 244 264 270 285 297 304 298 283 285 279 254 251 248 242 235 238 242 248 248 234
222 240 256 277 263 192 286 293 278 296 278 290 302 305 304 296 286 271 238 228 229 235 238 241 239 234 242 240 260 270 279 277 268 277 287 297 292 286 283 273 252 255 246 233 236 239 238 235 229
243 208 233 226 296 294 317 295 310 299 319 338 347 309 310 315 307 199 191 211 232 235 237 243 236 239 248 250 248 261 269 277 277 283 288 292 300 296 291 287 271 256 247 239 234 238 234 234 222
228 225 232 263 26 266 59 282 293 294 314 338 350 349 355 20 56 156 181 193 191 194 196 198 212 229 234 240 250 254 260 275 284 281 281 283 282 284 289 292 281 266 248 244 241 239 237 235 231
228 156 190 330 274 42 309 76 272 328 299 299 323 2 35 49 76 109 130 147 166 183 189 194 201 210 218 233 241 249 255 264 272 277 275 277 276 278 277 283 285 271 265 250 240 240 238 237 237
130 98 50 54 87 3 234 147 278 249 215 281 288 5 75 70 72 77 89 113 156 167 178 191 200 208 221 238 254 261 265 271 276 282 283 285 273 273 266 274 287 273 263 262 248 241 236 241 242
78 61 329 336 3 227 214 325 235 242 228 216 217 222 123 85 78 73 69 74 52 283 258 246 250 261 261 253 259 262 266 269 272 273 275 278 278 272 267 270 278 276 261 259 260 245 230 232 242
170 156 162 246 223 238 346 239 244 223 241 226 230 250 252 83 311 305 276 315 314 293 275 272 271 259 259 270 277 278 280 284 283 282 279 274 275 279 274 265 267 272 264 256 252 251 252 230 236
180 177 185 119 32 48 232 294 307 254 263 228 244 257 247 282 321 286 335 327 293 283 266 259 248 248 256 265 280 290 291 293 293 289 282 278 276 279 276 265 261 264 263 256 253 247 228 220 226
162 162 75 20 270 255 269 254 229 273 234 229 263 248 259 325 333 322 299 304 295 272 265 245 245 256 272 291 296 298 300 301 301 294 282 272 273 274 276 272 265 262 264 260 254 243 233 226 222
148 211 71 138 159 219 293 254 224 219 237 274 274 270 290 317 319 320 307 299 294 272 257 244 246 262 286 294 298 300 298 296 297 297 278 272 269 269 270 267 268 262 263 261 259 248 234 232 232
177 202 157 147 233 232 210 271 219 212 188 207 266 274 297 303 308 310 300 296 294 276 242 235 252 274 288 294 297 295 305 302 299 294 275 267 268 270 270 270 266 263 261 262 257 246 240 235 231
Wind_Speed_850mb
7 9 4 6 8 10 4 5 7 15 13 18 10 9 22 30 16 9 8 25 13 27 46 44 39 34 32 36 41 44 39 36 34 32 31 28 26 25 20 18 18 20 18 14 14 13 13 14 13
12 9 5 7 10 7 9 8 8 9 27 28 5 29 13 5 6 5 14 15 20 32 41 42 39 36 33 36 41 44 41 38 34 32 32 30 27 24 20 18 17 19 19 13 13 13 12 10 10
14 8 4 9 7 6 5 9 18 17 34 9 9 11 7 4 6 6 6 19 25 38 39 39 39 36 33 34 38 41 41 40 37 35 33 30 27 23 21 19 17 17 19 15 14 12 9 6 6
8 6 11 9 5 6 6 15 13 20 12 10 16 9 9 6 3 5 17 20 19 32 33 35 38 38 35 32 35 38 39 41 40 38 35 32 27 24 21 20 18 17 17 14 16 11 7 5 8
10 8 9 9 5 6 9 17 25 13 7 16 12 6 9 16 16 15 18 18 14 23 29 30 35 38 39 36 34 37 40 41 41 39 37 33 29 25 22 21 19 17 16 13 15 12 5 7 10
8 7 10 5 6 10 13 19 20 23 25 23 23 12 9 13 11 11 17 16 18 25 29 30 32 34 36 38 37 37 40 42 43 41 37 35 30 24 21 20 19 18 16 14 15 12 6 8 10
13 8 10 9 2 5 7 14 11 11 25 22 8 7 7 14 9 8 14 15 20 29 32 35 36 36 38 39 40 39 40 43 43 42 39 35 30 24 21 19 19 18 16 15 14 13 9 6 9
9 8 6 2 1 2 6 6 10 17 10 15 10 9 6 12 9 9 13 19 25 30 33 35 38 39 40 42 43 42 40 42 43 42 39 36 31 26 22 20 19 20 17 15 16 15 12 6 6
6 9 4 10 9 4 9 8 5 3 15 11 13 18 12 18 4 11 18 21 25 27 34 36 36 39 41 43 44 45 44 42 43 43 41 39 34 30 26 22 20 20 19 17 18 17 14 9 4
9 7 16 8 7 2 5 3 5 0 4 2 20 8 5 10 4 3 6 16 28 29 30 33 37 39 41 43 44 47 48 47 46 47 46 43 37 32 28 25 23 22 22 20 19 19 17 15 7
4 7 6 3 4 2 6 8 3 2 9 21 18 16 16 12 13 15 15 12 12 24 28 30 34 37 39 42 46 49 51 51 51 48 47 44 41 37 33 28 25 22 22 22 22 21 18 16 11
4 2 5 5 7 2 7 8 5 14 29 26 26 26 22 22 19 21 24 20 17 16 16 25 34 41 43 40 41 48 52 54 55 52 49 48 46 41 35 31 28 24 22 23 25 24 21 16 13
3 3 11 23 19 12 3 14 12 22 20 21 26 26 30 29 29 22 27 25 21 18 18 20 28 36 40 39 41 44 48 52 53 53 51 50 47 43 39 36 32 29 25 25 28 30 24 19 17
9 11 23 9 7 8 9 4 3 8 30 31 29 34 38 40 33 32 30 31 29 23 26 25 29 33 30 32 35 38 39 45 47 49 51 52 50 46 43 41 36 33 28 29 31 35 29 23 22
7 10 11 5 10 8 7 8 6 17 26 28 28 29 36 28 25 32 34 38 30 25 24 23 19 22 24 23 25 32 29 33 37 41 42 47 50 49 47 45 41 34 32 32 35 36 36 29 26
8 8 9 10 15 4 9 13 15 24 36 42 45 42 36 34 33 39 37 37 32 25 25 28 20 16 18 19 18 19 20 23 23 28 35 41 43 49 50 50 47 38 35 34 38 40 37 31 30
12 1 4 14 6 2 5 12 16 44 42 51 54 48 43 38 33 43 40 44 39 28 27 30 27 20 12 18 18 19 19 18 20 24 29 39 45 41 47 53 51 46 43 38 35 32 32 31 34
7 3 7 10 9 3 10 17 17 52 42 48 46 44 42 41 35 30 40 45 45 40 34 34 29 23 18 21 17 19 20 23 25 29 31 32 40 42 43 44 52 51 48 47 42 38 32 36 34
6 6 9 10 12 2 14 14 30 43 27 32 37 32 33 39 39 46 47 43 43 47 42 38 35 27 26 25 26 25 20 21 20 25 27 28 32 38 49 52 41 45 53 52 47 42 37 38 41
7 6 13 10 9 8 13 24 19 14 15 18 30 28 27 41 41 37 39 41 41 49 48 41 40 34 33 31 26 29 32 34 35 31 28 32 34 39 41 48 44 39 44 53 51 47 41 45 45
7 10 10 14 3 8 8 15 11 11 10 19 20 21 26 27 23 13 22 26 26 33 36 38 35 36 36 34 31 32 36 44 44 40 41 41 39 36 35 41 47 48 46 51 56 52 48 51 54
6 12 10 7 6 5 6 11 12 12 18 9 19 22 18 17 8 8 14 20 19 20 22 23 26 26 23 27 34 41 43 44 46 51 56 56 51 45 38 38 47 54 60 55 58 60 55 56 60
16 5 5 2 2 5 3 2 14 7 9 6 14 11 17 22 17 17 19 21 21 20 22 25 27 29 30 29 29 32 35 39 39 45 55 63 62 52 41 42 44 51 59 62 60 66 66 62 67
4 7 11 8 6 3 9 10 11 7 8 6 5 1 15 21 23 21 14 10 9 13 15 17 19 20 20 21 26 31 33 34 39 43 51 54 58 58 49 54 49 50 55 58 70 58 61 62 64
10 11 6 8 5 10 3 2 16 13 15 13 13 8 6 9 12 13 11 9 4 3 5 8 12 17 18 18 23 28 31 34 36 38 42 45 51 56 60 57 55 50 54 57 64 67 63 61 61
8 14 10 10 7 10 3 12 11 17 25 29 23 21 14 0 5 2 4 10 18 19 18 19 23 28 28 25 28 31 34 35 37 39 40 42 48 49 50 54 55 51 56 58 57 63 75 83 60
7 7 6 6 4 4 10 14 17 14 15 18 23 20 25 12 25 19 15 34 38 35 32 31 31 29 26 24 28 34 40 46 49 49 53 53 48 50 50 56 59 54 52 55 56 65 66 75 76
10 14 5 4 6 10 10 10 13 6 16 14 8 18 15 24 33 38 51 57 44 50 52 44 37 28 26 32 40 47 54 57 55 55 52 54 57 54 50 56 59 61 60 57 61 70 74 84 79
3 3 8 6 10 8 7 11 12 16 10 11 16 22 22 37 44 62 57 50 51 49 63 49 35 27 30 37 44 51 53 53 61 62 51 49 49 51 56 57 66 70 68 62 69 73 86 93 91
6 14 13 9 8 7 3 17 13 16 10 13 26 33 34 46 52 58 49 36 46 46 50 42 31 29 33 39 44 38 48 59 62 54 51 51 55 55 58 60 67 72 74 69 68 74 81 95 96
Wind_Direction_850mb
170 156 108 112 61 61 281 325 293 333 350 356 244 146 167 153 168 212 315 131 153 182 176 177 179 178 181 181 183 182 183 183 182 178 174 172 166 161 152 148 136 130 130 124 119 112 101 98 92
163 158 105 95 86 63 288 254 261 239 287 317 317 123 106 184 213 197 152 129 175 182 178 181 183 184 183 184 185 187 189 189 187 183 179 176 173 166 161 156 147 140 133 135 130 121 115 110 101
150 140 83 89 99 127 247 277 280 276 296 266 110 92 107 80 47 157 158 150 157 176 181 184 188 190 190 190 189 189 189 190 189 187 183 181 178 175 168 162 157 145 138 148 139 132 131 116 94
141 98 63 79 128 225 234 297 315 325 56 70 113 35 60 26 51 136 130 144 134 172 183 188 191 195 198 197 196 194 192 190 189 189 187 185 185 183 174 166 161 155 146 156 139 141 148 108 76
80 66 58 74 309 271 264 308 340 350 50 52 99 34 34 68 86 114 123 129 128 176 192 196 197 199 202 204 203 201 198 195 192 192 191 190 192 189 180 170 165 162 153 160 146 150 164 98 98
74 79 59 103 286 294 293 340 345 20 34 43 58 75 43 66 100 137 163 158 170 188 194 199 203 206 210 211 211 209 205 202 199 198 197 197 199 195 188 176 168 166 163 167 157 153 162 110 105
109 80 163 172 246 346 337 2 17 359 30 19 50 77 45 87 113 174 199 203 197 203 205 202 205 208 213 218 218 215 212 209 207 204 203 204 205 202 195 183 173 172 173 174 165 155 162 115 91
100 90 111 204 93 185 330 30 42 25 15 55 52 40 3 32 149 171 204 217 215 217 217 213 210 213 215 219 221 220 216 214 212 211 208 209 209 207 203 194 182 177 183 181 176 164 170 154 84
97 66 145 192 168 252 333 34 48 118 13 39 78 73 50 23 42 204 206 210 214 217 220 221 221 219 221 224 224 223 220 218 215 214 212 213 212 212 210 202 193 183 188 193 186 177 179 180 129
81 103 208 204 189 217 279 315 337 306 351 283 318 282 358 349 301 301 229 220 211 220 222 221 223 226 225 228 229 229 225 221 219 217 216 216 216 217 217 212 204 196 192 199 201 193 185 184 185
128 161 202 149 189 215 243 278 265 172 303 288 286 302 304 292 281 261 265 247 226 234 237 236 232 233 237 230 230 229 228 227 225 221 221 220 220 221 223 222 218 213 205 202 216 207 205 203 214
105 147 155 267 286 215 224 219 218 229 266 297 299 298 288 283 279 265 253 260 236 228 242 243 247 243 243 243 238 235 231 230 229 226 224 225 226 226 229 232 230 225 220 211 214 218 219 215 224
65 292 307 305 292 268 286 212 204 252 297 309 303 293 298 283 273 268 234 227 224 244 234 248 249 250 249 247 249 245 238 237 237 232 229 229 231 233 235 237 237 233 226 220 211 221 220 232 244
311 294 297 330 356 349 8 357 224 316 350 335 315 303 302 293 258 254 239 235 231 243 249 231 233 231 235 246 251 255 247 241 241 238 239 238 237 236 239 243 243 242 238 229 221 214 226 236 251
306 343 346 303 339 11 344 354 258 338 342 338 329 318 304 279 248 233 248 237 237 247 231 211 222 220 227 238 243 255 254 247 243 243 245 250 249 247 244 245 248 249 244 232 227 221 224 237 249
34 51 19 293 356 14 56 268 290 328 317 311 310 305 299 286 269 242 236 235 238 238 232 190 207 236 237 241 244 257 264 259 254 254 248 253 255 252 251 250 250 249 244 240 230 226 232 236 247
9 264 313 318 315 304 54 265 263 304 299 297 295 288 284 274 268 250 237 229 236 233 219 230 237 237 249 230 244 247 257 258 265 265 265 267 260 254 253 252 251 249 244 239 234 229 234 248 251
243 252 263 253 269 337 307 271 281 295 294 285 287 280 280 275 263 256 246 244 234 232 230 233 244 233 238 230 233 236 249 263 267 277 276 283 273 277 268 255 250 245 245 237 237 237 252 249 247
190 201 239 261 270 262 259 278 281 288 279 281 282 284 284 283 259 254 239 238 232 226 227 237 233 239 237 235 232 244 264 270 285 297 304 298 283 285 279 254 251 248 242 235 238 242 248 248 234
222 240 256 277 263 192 286 293 278 296 278 290 302 305 304 296 286 271 238 228 229 235 238 241 239 234 242 240 260 270 279 277 268 277 287 297 292 286 283 273 252 255 246 233 236 239 238 235 229
243 208 233 226 296 294 317 295 310 299 319 338 347 309 310 315 307 199 191 211 232 235 237 243 236 239 248 250 248 261 269 277 277 283 288 292 300 296 291 287 271 256 247 239 234 238 234 234 222
228 225 232 263 26 266 59 282 293 294 314 338 350 349 355 20 56 156 181 193 191 194 196 198 212 229 234 240 250 254 260 275 284 281 281 283 282 284 289 292 281 266 248 244 241 239 237 235 231
228 156 190 330 274 42 309 76 272 328 299 299 323 2 35 49 76 109 130 147 166 183 189 194 201 210 218 233 241 249 255 264 272 277 275 277 276 278 277 283 285 271 265 250 240 240 238 237 237
130 98 50 54 87 3 234 147 278 249 215 281 288 5 75 70 72 77 89 113 156 167 178 191 200 208 221 238 254 261 265 271 276 282 283 285 273 273 266 274 287 273 263 262 248 241 236 241 242
78 61 329 336 3 227 214 325 235 242 228 216 217 222 123 85 78 73 69 74 52 283 258 246 250 261 261 253 259 262 266 269 272 273 275 278 278 272 267 270 278 276 261 259 260 245 230 232 242
170 156 162 246 223 238 346 239 244 223 241 226 230 250 252 83 311 305 276 315 314 293 275 272 271 259 259 270 277 278 280 284 283 282 279 274 275 279 274 265 267 272 264 256 252 251 252 230 236
180 177 185 119 32 48 232 294 307 254 263 228 244 257 247 282 321 286 335 327 293 283 266 259 248 248 256 265 280 290 291 293 293 289 282 278 276 279 276 265 261 264 263 256 253 247 228 220 226
162 162 75 20 270 255 269 254 229 273 234 229 263 248 259 325 333 322 299 304 295 272 265 245 245 256 272 291 296 298 300 301 301 294 282 272 273 274 276 272 265 262 264 260 254 243 233 226 222
148 211 71 138 159 219 293 254 224 219 237 274 274 270 290 317 319 320 307 299 294 272 257 244 246 262 286 294 298 300 298 296 297 297 278 272 269 269 270 267 268 262 263 261 259 248 234 232 232
177 202 157 147 233 232 210 271 219 212 188 207 266 274 297 303 308 310 300 296 294 276 242 235 252 274 288 294 297 295 305 302 299 294 275 267 268 270 270 270 266 263 261 262 257 246 240 235 231